EW0608 Weather Reports


Display with metric or nautical units.
time (UTC)temp
F
wind
direction
speed
MPH
gust
MPH
rain 1hr
in
rain 24hr
in
rain mn
in
humidity
%
barometer
mb
20260508222350 68 209 1.0 7.0 0.00 0.47 0.47 37 1010.1
20260508221841 68 333 2.0 7.0 0.00 0.47 0.47 36 1010.1
20260508221557 68 101 0.0 2.0 0.00 0.47 0.47 36 1010.0
20260508221354 68 101 1.0 5.0 0.00 0.47 0.47 38 1010.2
20260508220846 68 224 1.0 5.0 0.00 0.47 0.47 37 1010.2
20260508220339 68 327 2.0 3.0 0.00 0.47 0.47 40 1010.2
20260508220049 68 134 0.0 3.0 0.00 0.47 0.47 36 1010.1
20260508215848 69 57 1.0 2.0 0.00 0.47 0.47 36 1010.1
20260508215340 69 59 1.0 3.0 0.00 0.47 0.47 36 1010.2
20260508214852 68 332 1.0 4.0 0.00 0.47 0.47 37 1010.2
20260508214544 68 338 1.0 4.0 0.00 0.47 0.47 37 1010.2
20260508214343 68 253 2.0 4.0 0.00 0.47 0.47 36 1010.2
20260508213835 68 111 1.0 4.0 0.00 0.47 0.47 37 1010.2
20260508213347 68 40 1.0 5.0 0.00 0.47 0.47 36 1010.3
20260508213040 68 333 2.0 5.0 0.00 0.47 0.47 37 1010.3
20260508212839 68 290 3.0 5.0 0.00 0.47 0.47 36 1010.3
20260508212352 69 348 1.0 5.0 0.00 0.47 0.47 35 1010.4
20260508211904 69 92 1.0 5.0 0.00 0.47 0.47 35 1010.4
20260508211518 68 223 2.0 5.0 0.00 0.47 0.47 35 1010.5
20260508211415 69 291 2.0 5.0 0.00 0.47 0.47 35 1010.4
20260508210846 69 360 2.0 6.0 0.00 0.47 0.47 35 1010.4
20260508210340 69 38 2.0 6.0 0.00 0.47 0.47 35 1010.3
20260508210050 69 213 2.0 6.0 0.00 0.47 0.47 34 1010.4
20260508205849 69 78 0.0 4.0 0.00 0.49 0.47 36 1010.4
20260508205342 69 43 1.0 5.0 0.00 0.49 0.47 37 1010.5
20260508204855 70 331 327.0 327.0 0.00 0.00 0.47 34 1010.5
20260508204548 68 26 1.0 5.0 0.00 0.49 0.47 36 1010.6
20260508204347 69 71 1.0 5.0 0.00 0.49 0.47 34 1010.6
20260508203840 70 355 1.0 6.0 0.00 0.49 0.47 35 1010.7
20260508203337 68 47 0.0 4.0 0.00 0.49 0.47 36 1010.7
20260508203052 67 47 0.0 4.0 0.00 0.49 0.47 35 1010.7
20260508202850 68 126 0.0 4.0 0.00 0.49 0.47 36 1010.8
20260508202343 68 59 1.0 4.0 0.01 0.49 0.47 37 1010.9
20260508201855 68 53 1.0 5.0 0.01 0.49 0.47 36 1010.9
20260508201517 67 163 2.0 5.0 0.01 0.49 0.47 35 1010.9
20260508201408 68 187 2.0 4.0 0.01 0.49 0.47 35 1011.0
20260508200839 68 87 1.0 4.0 0.02 0.49 0.47 35 1011.0
20260508200352 68 40 1.0 5.0 0.02 0.49 0.47 34 1011.2
20260508200040 67 9 1.0 8.0 0.02 0.49 0.47 35 1011.1
20260508195839 68 247 2.0 8.0 0.02 0.49 0.47 34 1011.1
20260508195351 69 171 1.0 7.0 0.02 0.49 0.47 33 1011.1
20260508194901 69 142 2.0 10.0 0.03 0.49 0.47 33 1011.2
20260508194514 69 331 4.0 10.0 0.03 0.49 0.47 32 1011.1
20260508194413 70 32 3.0 10.0 0.04 0.49 0.47 32 1011.1
20260508193844 69 5 3.0 7.0 0.04 0.49 0.47 33 1011.1
20260508193336 68 139 2.0 7.0 0.04 0.49 0.47 33 1011.2
20260508193016 67 67 2.0 7.0 0.04 0.49 0.47 34 1011.1
20260508192909 68 111 3.0 7.0 0.04 0.49 0.47 33 1011.2
20260508192340 68 71 2.0 7.0 0.03 0.48 0.46 33 1011.4
20260508191852 67 167 1.0 0.0 0.00 0.00 0.46 34 1011.2
20260508191544 67 201 1.0 5.0 0.03 0.48 0.46 34 1011.3
20260508191343 67 57 2.0 5.0 0.03 0.48 0.46 33 1011.4
20260508190837 68 294 0.0 4.0 0.02 0.47 0.45 33 1011.4
20260508190410 68 78 1.0 7.0 0.04 0.47 0.45 32 1011.6
20260508190039 67 65 1.0 9.0 0.04 0.47 0.45 32 1011.5
20260508185839 67 67 2.0 9.0 0.05 0.47 0.45 33 1011.7
20260508185412 68 290 2.0 8.0 0.05 0.47 0.45 31 1011.7
20260508184844 70 36 4.0 8.0 0.04 0.46 0.44 30 1011.8
20260508184538 70 40 2.0 8.0 0.05 0.46 0.44 31 1011.9
20260508184337 70 49 1.0 9.0 0.04 0.45 0.43 32 1011.8
20260508183908 70 269 2.0 11.0 0.04 0.45 0.43 31 1011.8
20260508183339 69 133 1.0 7.0 0.04 0.45 0.43 32 1011.9
20260508183052 69 355 2.0 7.0 0.05 0.45 0.43 32 1011.8
20260508182851 69 82 3.0 7.0 0.06 0.45 0.43 31 1011.9
20260508182343 69 24 3.0 8.0 0.08 0.45 0.43 31 1011.9
20260508181836 70 300 4.0 10.0 0.08 0.45 0.43 30 1011.9
20260508181537 70 310 4.0 10.0 0.08 0.45 0.43 29 1012.0
20260508180854 71 160 3.0 10.0 0.09 0.43 0.41 30 1012.2
20260508180346 71 113 2.0 9.0 0.09 0.43 0.41 30 1012.0
20260508180038 70 117 4.0 9.0 0.09 0.43 0.41 30 1012.3
20260508175837 70 321 3.0 9.0 0.08 0.42 0.40 31 1012.2
20260508174848 67 189 4.0 10.0 0.09 0.42 0.40 32 1012.5
20260508174544 67 294 3.0 10.0 0.08 0.41 0.39 32 1012.5
20260508174340 67 85 3.0 10.0 0.08 0.41 0.39 33 1012.5
20260508173912 67 300 4.0 10.0 0.08 0.41 0.39 32 1012.6
20260508173403 66 124 4.0 10.0 0.08 0.41 0.39 33 1012.4
20260508173055 65 206 3.0 10.0 0.08 0.40 0.38 34 1012.5
20260508172854 65 161 5.0 10.0 0.08 0.39 0.37 33 1012.5
20260508172345 65 57 3.0 10.0 0.07 0.37 0.35 35 1012.7
20260508171859 65 355 2.0 9.0 0.07 0.37 0.35 34 1012.7
20260508171553 65 163 2.0 10.0 0.07 0.37 0.35 33 1012.7
20260508171350 65 105 3.0 10.0 0.08 0.37 0.35 34 1012.6
20260508170842 65 198 2.0 7.0 0.05 0.34 0.32 34 1012.8
20260508170356 66 271 4.0 8.0 0.05 0.34 0.32 33 1012.9
20260508170046 65 78 2.0 8.0 0.05 0.34 0.32 33 1012.9
20260508165845 67 202 4.0 8.0 0.09 0.34 0.32 32 1013.0
20260508165337 67 202 3.0 8.0 0.08 0.33 0.31 35 1012.9
20260508164848 65 325 2.0 6.0 0.08 0.33 0.31 36 1013.0
20260508164540 65 38 2.0 6.0 0.08 0.33 0.31 38 1013.0
20260508164340 65 5 2.0 9.0 0.08 0.33 0.31 37 1013.1
20260508163853 65 340 3.0 9.0 0.08 0.33 0.31 35 1013.2
20260508163344 67 347 3.0 9.0 0.08 0.33 0.31 33 1013.1
20260508163041 67 174 3.0 7.0 0.07 0.32 0.30 34 1013.2
20260508162837 67 97 4.0 7.0 0.06 0.31 0.29 35 1013.1
20260508162349 65 323 2.0 8.0 0.05 0.30 0.28 35 1013.3
20260508161842 64 323 4.0 13.0 0.07 0.30 0.28 38 1013.4
20260508161604 64 293 4.0 13.0 0.11 0.30 0.28 36 1013.4
20260508161352 64 157 4.0 8.0 0.10 0.29 0.27 36 1013.5
20260508160846 64 355 3.0 8.0 0.10 0.29 0.27 39 1013.6
20260508160359 64 66 3.0 7.0 0.10 0.29 0.27 39 1013.4
20260508160047 63 329 3.0 7.0 0.10 0.28 0.27 39 1013.5
20260508155847 64 340 4.0 9.0 0.07 0.25 0.23 38 1013.5
20260508155359 66 281 3.0 7.0 0.08 0.25 0.23 35 1013.6
20260508154849 65 68 4.0 7.0 0.11 0.25 0.23 39 1013.6
20260508154542 63 30 3.0 8.0 0.16 0.25 0.23 40 1013.6
20260508154341 63 87 2.0 8.0 0.16 0.25 0.23 40 1013.6
20260508153853 64 327 2.0 8.0 0.16 0.25 0.23 40 1013.7
20260508153346 63 327 4.0 7.0 0.17 0.25 0.23 39 1013.8
20260508153046 62 74 2.0 10.0 0.17 0.25 0.23 39 1013.7
20260508152843 63 56 3.0 10.0 0.17 0.25 0.23 40 1013.7
20260508152355 62 77 3.0 12.0 0.18 0.25 0.23 41 1013.8
20260508151848 63 219 5.0 12.0 0.16 0.23 0.21 39 1013.6
20260508151542 62 57 2.0 9.0 0.12 0.19 0.17 40 1013.6
20260508151341 62 51 3.0 10.0 0.12 0.19 0.17 39 1013.7
20260508150854 62 73 4.0 10.0 0.12 0.19 0.17 39 1013.9
20260508150408 62 46 5.0 13.0 0.12 0.19 0.17 39 1013.9
20260508150036 62 87 4.0 13.0 0.12 0.19 0.17 39 1013.8
20260508145836 62 37 2.0 8.0 0.11 0.18 0.16 41 1013.8
20260508145349 62 180 4.0 12.0 0.10 0.17 0.15 39 1014.0
20260508144902 62 218 4.0 12.0 0.07 0.14 0.12 40 1013.9
20260508144516 62 125 4.0 12.0 0.02 0.09 0.07 41 1014.2
20260508144415 62 59 3.0 10.0 0.02 0.09 0.07 40 1014.0
20260508143003 61 63 2.0 7.0 0.06 0.08 0.06 41 1014.3
20260508141602 60 15 3.0 9.0 0.05 0.07 0.05 41 1014.2
20260508140057 59 176 1.0 7.0 0.05 0.07 0.05 42 1014.3
20260508134558 57 148 3.0 11.0 0.05 0.07 0.05 44 1014.5
20260508133102 56 248 3.0 7.0 0.00 0.02 0.00 49 1014.5
20260508131548 54 195 3.0 6.0 0.00 0.02 0.00 53 1014.5
20260508130041 52 63 0.0 2.0 0.00 0.02 0.00 60 1014.7
20260508124536 50 323 2.0 5.0 0.00 0.02 0.00 65 1014.8
20260508123051 46 12 1.0 4.0 0.00 0.02 0.00 73 1015.0
20260508121547 43 117 1.0 4.0 0.00 0.02 0.00 80 1015.1
20260508120034 41 286 1.0 3.0 0.00 0.02 0.00 82 1015.1
20260508114532 39 191 0.0 0.0 0.00 0.02 0.00 88 1015.1
20260508113033 39 191 0.0 0.0 0.00 0.02 0.00 90 1015.0
20260508111530 37 191 0.0 0.0 0.00 0.02 0.00 94 1014.9
20260508110028 36 191 0.0 0.0 0.00 0.02 0.00 94 1014.7
20260508104526 35 191 0.0 0.0 0.00 0.02 0.00 94 1014.5
20260508103025 35 191 0.0 0.0 0.00 0.02 0.00 93 1014.3
20260508101523 35 191 0.0 0.0 0.00 0.02 0.00 93 1014.2
20260508100025 35 191 0.0 0.0 0.00 0.02 0.00 92 1014.1
20260508094518 36 191 0.0 0.0 0.00 0.02 0.00 91 1013.9
20260508093022 36 191 0.0 0.0 0.00 0.02 0.00 90 1014.1
20260508091524 37 191 0.0 2.0 0.00 0.02 0.00 90 1014.1
20260508090014 37 191 0.0 0.0 0.00 0.02 0.00 90 1013.9
20260508084508 38 191 0.0 0.0 0.00 0.02 0.00 89 1013.7
20260508083006 38 191 0.0 0.0 0.00 0.02 0.00 89 1013.5
20260508081504 38 191 0.0 1.0 0.00 0.02 0.00 89 1013.4
20260508080101 39 191 0.0 0.0 0.00 0.02 0.00 87 1013.2
20260508074557 40 191 0.0 0.0 0.00 0.02 0.00 86 1013.2
20260508073056 40 191 0.0 1.0 0.00 0.02 0.00 85 1013.4
20260508071554 41 191 1.0 2.0 0.00 0.02 0.00 83 1013.2
20260508070057 42 191 1.0 2.0 0.00 0.02 0.00 81 1013.2
20260508064546 42 190 0.0 1.0 0.00 0.02 0.00 80 1013.2
20260508063042 43 190 0.0 0.0 0.00 0.02 0.00 76 1013.1
20260508061540 44 190 0.0 0.0 0.00 0.02 0.00 74 1013.0
20260508060838 45 190 0.0 0.0 0.00 0.02 0.00 72 1013.1
20260508060353 45 190 0.0 0.0 0.00 0.02 0.00 71 1013.1
20260508060043 45 190 0.0 0.0 0.00 0.02 0.00 72 1013.0
20260508055842 46 190 0.0 0.0 0.00 0.02 0.00 70 1013.1
20260508055355 47 190 0.0 0.0 0.00 0.02 0.00 69 1013.2
20260508054847 48 190 0.0 0.0 0.00 0.00 0.00 67 1012.9
20260508054543 47 190 0.0 0.0 0.00 0.02 0.00 65 1013.0
20260508054338 48 190 0.0 0.0 0.00 0.02 0.00 64 1013.1
20260508053849 48 190 0.0 0.0 0.00 0.02 0.00 63 1013.0
20260508053343 48 190 0.0 0.0 0.00 0.02 0.00 63 1013.1
20260508053059 48 190 0.0 1.0 0.00 0.02 0.00 64 1012.9
20260508052854 49 190 0.0 1.0 0.00 0.02 0.00 63 1013.1
20260508051855 49 190 1.0 2.0 0.00 0.02 0.00 63 1013.0
20260508051548 49 190 0.0 2.0 0.00 0.02 0.00 62 1012.8
20260508051347 49 134 0.0 2.0 0.00 0.02 0.00 63 1013.0
20260508050840 49 134 0.0 3.0 0.00 0.02 0.00 62 1013.0
20260508050352 49 134 1.0 3.0 0.00 0.02 0.00 60 1013.0
20260508050004 49 134 0.0 3.0 0.00 0.02 0.00 63 1012.8
20260508045840 49 134 0.0 3.0 0.00 0.02 0.00 63 1013.0
20260508045412 49 134 1.0 3.0 0.00 0.02 0.00 62 1012.9
20260508044844 49 119 1.0 3.0 0.00 0.02 0.00 63 1012.8
20260508044553 49 198 0.0 3.0 0.00 0.02 0.00 64 1012.7
20260508044337 50 202 0.0 3.0 0.00 0.02 0.00 64 1012.8
20260508043850 50 32 0.0 2.0 0.00 0.02 0.00 64 1012.8
20260508043341 49 32 0.0 2.0 0.00 0.02 0.00 62 1012.7
20260508043018 49 32 0.0 2.0 0.00 0.02 0.00 66 1012.4
20260508042915 49 32 1.0 2.0 0.00 0.02 0.00 66 1012.6
20260508042406 49 32 0.0 2.0 0.00 0.02 0.00 66 1012.5
20260508041858 48 32 0.0 3.0 0.00 0.02 0.00 69 1012.4
20260508041509 48 27 0.0 3.0 0.00 0.02 0.00 71 1012.2
20260508041409 48 279 0.0 3.0 0.00 0.02 0.00 71 1012.3
20260508040839 47 84 0.0 3.0 0.00 0.02 0.00 74 1012.3
20260508040413 47 59 0.0 2.0 0.00 0.02 0.00 76 1012.2
20260508040042 46 59 0.0 2.0 0.00 0.02 0.00 77 1011.9
20260508035840 46 57 0.0 2.0 0.00 0.02 0.02 78 1012.1
20260508035351 46 196 1.0 4.0 0.00 0.02 0.02 80 1012.0
20260508034844 46 29 0.0 4.0 0.00 0.02 0.02 80 1011.9
20260508034544 45 302 1.0 4.0 0.00 0.02 0.02 80 1011.7
20260508034336 46 42 0.0 2.0 0.00 0.02 0.02 80 1011.9
20260508033850 46 42 0.0 2.0 0.00 0.02 0.02 79 1011.8
20260508033342 46 42 0.0 2.0 0.00 0.02 0.02 79 1011.7
20260508033040 46 42 0.0 2.0 0.00 0.02 0.02 79 1011.6
20260508032840 46 42 0.0 2.0 0.00 0.02 0.02 79 1011.8
20260508032353 46 42 0.0 2.0 0.00 0.02 0.02 79 1011.8
20260508031845 47 42 0.0 2.0 0.00 0.02 0.02 78 1011.7
20260508031536 46 42 0.0 2.0 0.00 0.02 0.02 78 1011.5
20260508031336 47 42 0.0 0.0 0.00 0.02 0.02 77 1011.6
20260508030849 47 42 0.0 1.0 0.00 0.02 0.02 76 1011.6
20260508030343 47 42 0.0 1.0 0.00 0.02 0.02 77 1011.6
20260508030100 47 42 0.0 1.0 0.00 0.02 0.02 78 1011.3
20260508025852 47 42 0.0 1.0 0.00 0.02 0.02 78 1011.5
20260508025345 48 42 0.0 1.0 0.00 0.02 0.02 78 1011.4
20260508024858 48 42 0.0 1.0 0.00 0.02 0.02 78 1011.4
20260508024551 47 42 0.0 1.0 0.00 0.02 0.02 77 1011.2
20260508024350 48 42 0.0 0.0 0.00 0.02 0.02 77 1011.3
20260508023844 48 42 0.0 1.0 0.00 0.02 0.02 75 1011.4
20260508023337 48 42 0.0 2.0 0.00 0.02 0.02 73 1011.4
20260508023048 48 42 0.0 2.0 0.00 0.02 0.02 73 1011.1
20260508022345 48 42 0.0 1.0 0.00 0.02 0.02 70 1011.2
20260508021838 49 42 0.0 1.0 0.00 0.02 0.02 69 1011.2
20260508021511 48 42 0.0 1.0 0.00 0.02 0.02 69 1010.9
20260508021411 49 42 0.0 1.0 0.00 0.02 0.02 68 1011.1
20260508020903 49 42 0.0 1.0 0.00 0.02 0.02 67 1011.1
20260508020356 50 42 0.0 0.0 0.00 0.02 0.02 66 1011.0
20260508020005 49 42 0.0 0.0 0.00 0.02 0.02 66 1010.8
20260508015905 50 42 0.0 0.0 0.00 0.02 0.02 66 1011.0
20260508015337 50 42 0.0 1.0 0.00 0.02 0.02 67 1010.9
20260508014851 50 42 0.0 1.0 0.00 0.02 0.02 66 1010.8
20260508014548 50 42 0.0 1.0 0.00 0.02 0.02 65 1010.5
20260508014345 51 42 0.0 0.0 0.00 0.02 0.02 65 1010.8
20260508013838 51 42 0.0 0.0 0.00 0.02 0.02 64 1010.8
20260508013411 52 42 0.0 0.0 0.00 0.02 0.02 64 1010.6
20260508013044 52 42 0.0 0.0 0.00 0.02 0.02 64 1010.4
20260508012842 52 42 0.0 0.0 0.00 0.02 0.02 64 1010.5
20260508012336 53 42 0.0 0.0 0.00 0.02 0.02 62 1010.5
20260508011848 53 42 0.0 0.0 0.00 0.02 0.02 61 1010.4
20260508011503 53 42 0.0 0.0 0.00 0.02 0.02 60 1010.2
20260508011401 54 42 0.0 0.0 0.00 0.02 0.02 60 1010.3
20260508010852 54 42 0.0 0.0 0.00 0.02 0.02 58 1010.2
20260508010346 54 42 0.0 0.0 0.00 0.02 0.02 57 1010.1
20260508010040 54 42 0.0 0.0 0.00 0.02 0.02 57 1009.9
20260508005840 55 42 0.0 0.0 0.00 0.02 0.02 56 1010.0
20260508005354 56 42 0.0 0.0 0.00 0.02 0.02 55 1010.0
20260508004847 56 42 0.0 1.0 0.00 0.02 0.02 53 1009.9
20260508004635 56 42 0.0 2.0 0.00 0.02 0.02 53 1009.6
20260508004435 57 42 0.0 2.0 0.00 0.02 0.02 52 1009.8
20260508003905 57 42 0.0 1.0 0.00 0.02 0.02 51 1009.8
20260508003341 58 41 0.0 0.0 0.00 0.02 0.02 51 1009.7
20260508003054 57 41 0.0 0.0 0.00 0.02 0.02 51 1009.5
20260508002853 58 41 0.0 0.0 0.00 0.02 0.02 50 1009.7
20260508002345 58 41 0.0 1.0 0.00 0.02 0.02 49 1009.6
20260508001858 59 41 0.0 1.0 0.00 0.02 0.02 50 1009.6
20260508001551 58 41 0.0 0.0 0.00 0.02 0.02 49 1009.3
20260508001350 59 41 0.0 1.0 0.00 0.02 0.02 48 1009.5
20260508000902 60 41 0.0 1.0 0.00 0.02 0.02 45 1009.4
20260508000414 60 41 0.0 1.0 0.00 0.02 0.02 44 1009.3
20260508000043 60 41 0.0 1.0 0.00 0.02 0.02 43 1009.0
20260507235842 61 41 0.0 1.0 0.00 0.02 0.02 43 1009.2
20260507235413 61 41 0.0 3.0 0.00 0.02 0.02 39 1009.1
20260507234603 61 46 1.0 4.0 0.00 0.02 0.02 39 1008.8
20260507233056 62 80 0.0 3.0 0.00 0.02 0.02 38 1008.6
20260507231558 63 85 0.0 2.0 0.00 0.02 0.02 38 1008.6
20260507230100 63 333 1.0 5.0 0.00 0.02 0.02 36 1008.4
20260507224556 64 269 2.0 6.0 0.00 0.02 0.02 36 1008.3
20260507223059 64 335 0.0 4.0 0.00 0.02 0.02 36 1008.0